Terug naar catalogus

STARLINK-5398

ActiefCommunicatieVLEO
NORAD 54866·PAYLOAD·🇺🇸 United States

Gelanceerd Dec 28, 2022 vanaf Cape Canaveral Space Force Station

Loading…

Volgende Passages (komende 24 uur)

TLE

VersSource: CelesTrak SupGP

Epoch: Sep 15, 2026, 01:43 UTC

1 54866C 22177AY  26258.07201389  .00056114  00000+0  20325-2 0  2589
2 54866  43.0026 131.6536 0001566 270.9259 275.8112 15.27549624    15

Volg STARLINK-5398 in realtime met AllMySat

Download on the App Store